Regional Weather Roundup
Issued by NWS Jackson, KY

Home | Current Version | Previous Version | Text Only | Print | Product List | Glossary On
Versions: 1 2 3 4 5 6 7 8 9 10 11 12 13 14 15 16 17 18 19 20 21 22 23 24 25 26 27 28 29 30 31 32 33 34 35 36 37 38 39 40 41 42 43 44 45 46 47 48 49 50
000
ASUS43 KJKL 041110
RWRJKL

EAST KENTUCKY HOURLY WEATHER ROUNDUP
NATIONAL WEATHER SERVICE JACKSON KY
700 AM EDT FRI SEP 04 2015

NOTE: "FAIR" INDICATES FEW OR NO CLOUDS BELOW 12,000 FEET WITH
NO SIGNIFICANT WEATHER AND/OR OBSTRUCTIONS TO VISIBILITY.

* THESE REPORTS ARE NOT UNDER NWS QUALITY CONTROL AND MAY NOT
  REPORT WEATHER SUCH AS PRECIPITATION AND FOG.

KYZ079-080-083-085-087-088-110-112-115-119-120-041200
...EASTERN KENTUCKY...

CITY           SKY/WX    TMP DP  RH WIND       PRES   REMARKS
JACKSON        CLEAR     68  66  93 CALM      30.06R FOG
LONDON         PTCLDY    66  62  87 CALM      30.07R FOG
SOMERSET*      CLEAR     63  63 100 CALM      30.06R FOG
MONTICELLO*    CLEAR     62  62 100 CALM      30.08R FOG
WILLIAMSBURG*  CLOUDY    63  63 100 CALM      30.07
MIDDLESBORO*   FOG       65  65 100 CALM      30.08R VSB 3/4
HARLAN APT*      N/A     64  64 100 MISG      30.10R VSB 3/4
HAZARD APT*      N/A     64  64 100 CALM      30.07R FOG
BLACK MTN*       N/A     64  63  94 NW1         N/A
PIKEVILLE APT* CLEAR     66  66 100 S3        30.07R FOG
BIG SANDY*     SUNNY     66  66  99 CALM      30.06R FOG
MOREHEAD APT*  PTSUNNY   68  66  94 CALM      30.07R FOG
$$

KYZ035-036-041-042-044-050-067-078-099-041200
...CENTRAL KENTUCKY...

CITY           SKY/WX    TMP DP  RH WIND       PRES   REMARKS
MT STERLING*     N/A     64  64 100 CALM      30.06R FOG
FLEMING/MASON* CLEAR     68  68 100 S3        30.05R FOG
DANVILLE*      CLEAR     63  63 100 CALM      30.06R
RICHMOND*      CLEAR     66  64  94 CALM      30.05R
LEXINGTON      CLEAR     67  64  90 CALM      30.05R FOG
FRANKFORT      CLEAR     66  64  93 CALM      30.03R FOG
$$

KYZ091>093-OHZ055-061-077-WVZ005-015-034-035-042-041200
...SOUTHERN OHIO/WEST VIRGINIA...

CITY           SKY/WX    TMP DP  RH WIND       PRES   REMARKS
COVINGTON      CLEAR     67  66  97 CALM      30.02S FOG
COLUMBUS       CLOUDY    69  65  86 SE5       30.03R
DAYTON         MOCLDY    71  67  87 SE6       30.03R
WILMINGTON     PTCLDY    68  65  90 CALM      30.03R
HUNTINGTON     CLEAR     64  64 100 CALM      30.03R FOG
CHARLESTON     FOG       67  66  97 CALM      30.05R VSB 1/2
PINEVILLE*     FOG       65  65 100 MISG      30.14R VSB 1/4
BECKLEY        CLEAR     63  61  93 CALM      30.12R FOG
BLUEFIELD      CLEAR     65  61  87 W5        30.14R FOG
$$

VAZ002-007-008-TNZ017-027-036-066-071-041200
...SOUTHWEST VIRGINIA/EAST TENNESSEE...

CITY           SKY/WX    TMP DP  RH WIND       PRES   REMARKS
WISE*          FOG       63  63 100 CALM      30.15R VSB<1/4
JONESVILLE*    SUNNY     63  61  94 CALM      30.10R
ABINGDON*      CLEAR     65  64  94 CALM      30.10R FOG
BRISTOL        PTCLDY    63  63 100 CALM      30.08R FOG
KNOXVILLE      CLEAR     68  68 100 CALM      30.03R
OAK RIDGE      CLEAR     68  66  93 CALM      30.05R FOG
CROSSVILLE     CLEAR     65  62  90 CALM      30.08S FOG
NASHVILLE      CLEAR     72  68  87 CALM      30.02R
$$

...KEY TO REMARKS...
VSB - VISIBILITY IN MILES
WCI - WIND CHILL INDEX
HX  - HEAT INDEX

$$



USA.gov is the U.S. government's official web portal to all federal, state and local government web resources and services.